Wind_Speed
8 8 8 9 13 15 15 15 19 20 21 20 19 18 18 16 14 13 12 11 11 11 11 10 10 11 11 12 11 9 10 11 12 14 16 22 23 22 19 17 14 12 12
10 7 8 8 12 13 15 14 15 21 21 18 18 17 17 15 14 11 10 9 8 9 10 10 10 10 11 12 13 13 14 15 15 19 23 23 21 18 15 12 11 9 9
13 6 7 8 10 12 13 14 14 17 20 19 18 18 16 16 15 14 12 10 10 10 10 11 12 12 13 13 16 17 18 19 22 23 22 20 17 14 11 8 6 5 7
15 9 7 7 9 11 12 15 16 17 19 19 20 20 19 19 18 17 14 13 14 14 13 13 14 15 14 17 20 23 24 24 23 21 19 16 13 10 8 5 3 2 4
16 12 7 7 8 9 11 13 15 17 18 20 21 21 22 22 19 18 17 15 15 16 16 16 17 18 20 23 25 25 23 21 19 18 15 13 11 9 6 5 4 3 2
17 14 10 6 7 7 9 10 13 15 16 18 20 21 21 20 19 19 18 18 18 18 19 20 22 22 22 22 21 20 18 17 15 14 12 11 9 7 5 4 3 3 2
18 14 12 8 5 6 7 9 10 13 14 14 16 18 19 19 18 18 19 19 19 18 18 19 18 17 17 17 16 14 12 11 9 7 6 5 4 3 3 3 3 3 4
15 16 13 10 5 4 4 7 8 10 13 12 13 14 15 17 18 17 16 16 15 15 14 14 13 12 11 11 10 10 9 7 6 6 4 3 4 5 4 4 3 3 3
12 13 14 11 8 4 3 3 5 7 9 11 11 11 12 12 13 14 14 13 12 12 11 11 10 8 8 7 7 6 6 6 5 4 3 4 5 3 2 1 3 2 2
6 9 10 11 9 6 4 2 3 4 6 8 9 10 10 11 11 11 10 10 10 9 10 9 7 7 6 6 6 6 6 6 5 5 3 3 3 2 3 2 2 1 1
2 2 5 7 8 7 4 2 3 3 5 6 7 8 9 9 10 10 9 9 9 8 7 7 6 5 5 5 5 5 5 4 4 3 2 2 3 3 3 3 4 5 6
9 7 3 2 4 4 5 1 2 5 5 6 7 8 9 9 9 9 9 8 8 7 7 6 5 4 3 3 4 4 4 4 5 4 4 4 4 5 6 7 8 8 9
11 11 10 7 3 3 2 2 1 3 6 8 8 10 11 10 10 11 11 11 10 8 8 6 6 5 5 5 4 5 6 6 5 5 6 7 8 9 8 7 6 5 6
12 13 13 12 10 7 6 4 1 2 5 7 10 11 12 13 13 13 12 12 12 12 11 10 9 8 8 8 8 8 9 9 10 10 10 10 9 6 5 4 4 5 6
18 17 18 17 14 13 10 9 8 5 5 7 9 11 14 15 14 15 15 15 15 15 14 14 13 13 12 13 13 14 14 13 13 12 10 9 7 5 3 3 3 4 5
25 22 20 21 21 18 16 14 13 11 9 8 9 11 12 15 17 18 18 18 18 18 17 17 17 17 18 18 18 17 17 15 14 12 9 9 8 7 6 5 4 5 6
31 29 27 25 23 23 22 20 18 16 16 14 12 12 13 15 16 18 20 21 21 21 20 19 19 19 19 20 19 18 17 17 15 13 12 13 12 11 12 11 10 9 10
38 36 33 33 29 29 27 26 23 21 20 20 19 17 16 16 17 18 19 21 21 21 22 21 21 21 21 21 20 20 18 18 17 16 15 16 16 16 16 15 14 13 13
41 41 41 40 39 36 35 31 30 26 24 24 24 23 21 19 18 19 20 21 22 23 23 24 24 24 24 23 23 22 20 20 20 18 18 18 17 18 17 16 17 15 15
45 46 46 46 47 46 43 39 37 35 34 31 28 27 26 25 23 22 21 22 22 23 24 24 25 25 26 26 26 24 23 23 22 19 21 21 19 20 19 19 19 18 17
49 49 51 52 53 51 51 49 44 41 41 40 36 34 31 31 30 28 27 25 23 21 22 25 27 28 28 29 27 26 25 25 23 23 24 24 23 24 23 22 22 21 20
50 54 54 56 58 59 59 56 55 50 47 48 45 41 38 36 36 36 32 30 28 27 25 26 26 27 28 30 28 29 27 28 27 28 29 29 28 28 27 27 25 25 25
50 52 57 59 62 63 63 63 62 60 54 51 51 49 46 43 43 40 38 35 33 33 31 31 32 31 30 31 31 31 31 29 34 32 32 33 33 32 30 30 30 31 31
58 56 57 61 66 67 69 69 68 66 65 58 55 58 54 51 49 49 47 44 42 40 39 37 37 38 38 35 36 34 35 36 36 36 36 36 36 35 35 36 36 37 37
60 64 65 63 64 72 74 74 75 73 72 69 64 62 64 59 56 55 54 53 50 48 46 45 44 43 44 43 42 41 39 40 40 40 39 40 41 40 41 40 41 41 40
59 64 68 71 71 70 75 80 79 80 78 78 76 72 69 69 64 61 60 59 57 56 54 53 52 52 49 48 47 47 46 46 47 48 47 44 47 46 47 46 44 43 44
Wind_Direction
56 53 59 66 74 72 64 74 101 105 106 109 103 100 100 100 101 106 113 116 119 121 124 123 124 123 129 132 129 130 134 134 135 132 135 128 129 131 131 122 111 107 103
59 56 55 64 76 75 73 63 99 103 104 106 105 103 104 103 101 98 100 106 113 124 131 133 133 131 131 132 134 133 131 134 136 134 131 130 133 130 123 120 115 113 119
56 64 64 67 79 82 73 70 80 106 107 106 106 108 107 104 102 100 99 105 114 121 129 131 131 131 129 131 135 132 130 131 132 132 131 132 132 130 130 118 118 126 142
54 53 72 72 84 86 80 84 76 89 102 104 102 102 103 100 98 97 96 103 109 110 118 123 127 125 126 131 129 128 128 132 133 132 131 133 135 138 141 148 141 153 161
53 48 59 75 86 89 90 94 87 86 93 99 100 103 105 104 97 92 94 98 103 109 115 123 124 124 128 129 128 126 129 130 133 138 142 144 151 155 149 139 131 126 149
60 51 47 63 81 97 99 99 102 97 95 100 101 104 108 107 105 100 102 101 100 102 105 111 115 122 123 125 125 127 131 136 139 145 155 163 166 158 156 164 161 169 199
57 57 53 50 69 87 106 107 113 111 107 105 109 110 112 114 111 109 110 112 109 107 108 111 116 120 125 126 128 133 138 145 154 166 170 172 164 179 210 234 250 272 277
57 55 54 57 58 72 89 106 115 122 120 117 118 118 118 120 123 122 121 121 121 121 122 123 128 129 131 136 141 148 153 162 168 167 173 198 223 232 247 265 275 282 268
59 57 49 51 63 83 92 103 117 127 132 131 128 125 126 127 131 133 136 136 137 139 139 141 143 145 147 148 156 162 168 169 177 192 220 235 241 257 258 196 161 149 136
57 59 60 48 45 68 104 139 142 146 150 144 140 138 135 137 140 144 150 154 157 160 159 156 158 157 162 169 179 185 187 189 207 234 258 244 231 208 187 183 184 202 241
308 32 57 50 47 40 70 125 179 186 182 175 166 156 152 152 155 156 158 161 166 164 161 154 154 158 172 189 196 204 220 236 254 256 233 212 222 246 250 263 284 292 294
291 296 314 23 27 41 40 77 191 204 216 215 196 179 172 166 169 172 172 175 182 184 179 179 179 188 199 211 217 227 232 238 245 250 255 256 263 269 277 281 283 290 299
291 287 285 283 286 310 348 45 213 230 222 226 222 208 197 189 186 188 192 193 190 197 204 218 221 224 230 234 232 242 248 254 254 258 261 261 264 267 274 279 285 290 301
277 277 279 269 267 264 278 285 274 267 247 237 235 233 225 217 208 206 208 210 213 214 219 228 240 244 244 244 242 246 251 256 258 259 260 258 255 251 249 263 287 313 321
261 270 273 275 257 256 256 259 260 247 256 255 246 240 241 240 239 230 222 223 227 233 237 237 236 242 248 251 255 256 256 257 258 258 252 248 238 241 257 287 312 322 327
260 261 265 276 274 259 249 249 255 255 244 248 253 255 252 245 244 244 245 240 237 236 239 243 244 244 246 247 248 251 253 254 257 256 251 244 234 235 239 248 260 271 281
254 255 258 257 264 268 260 252 244 247 253 244 240 247 247 252 252 247 246 250 252 252 249 249 248 249 249 250 252 254 257 257 254 248 242 238 234 231 237 241 246 256 266
255 256 256 257 255 256 263 257 251 250 248 251 251 239 240 242 247 254 255 254 253 256 257 255 254 255 257 258 258 257 257 254 248 240 240 237 236 239 247 254 258 262 270
249 252 258 259 257 253 253 256 250 258 262 256 253 252 246 240 241 243 249 252 255 257 257 257 258 258 258 257 258 258 254 250 245 236 239 242 243 247 249 255 260 262 269
247 247 251 252 258 259 256 254 255 255 261 257 252 248 247 247 244 241 242 249 250 253 256 257 256 256 258 257 257 257 255 251 244 242 245 245 247 251 253 256 259 266 272
250 248 246 250 255 254 260 260 254 254 252 255 256 250 245 248 245 243 242 240 244 248 250 253 256 258 257 259 258 258 251 246 243 246 249 249 247 250 255 257 263 267 274
249 249 248 248 248 253 255 252 255 254 253 252 253 255 252 250 248 245 244 244 244 242 245 249 253 255 254 254 252 249 245 243 243 245 246 248 248 249 254 260 264 268 274
258 251 247 246 248 248 250 252 255 255 252 253 255 255 254 247 248 246 244 243 243 245 242 243 248 250 251 250 250 246 244 243 245 244 246 249 249 251 253 258 264 271 275
264 260 255 247 244 246 248 248 250 252 255 252 251 251 248 251 248 247 245 242 243 241 242 243 242 245 248 247 246 248 249 247 247 247 248 249 257 259 263 267 270 274 278
262 263 261 255 249 244 244 245 246 247 251 252 248 248 250 247 248 251 251 249 243 242 243 244 244 246 246 248 250 247 248 253 252 254 254 260 257 262 265 267 272 276 278
267 261 258 259 255 249 245 245 244 244 244 247 249 248 246 247 245 246 249 252 253 250 246 245 247 247 246 249 250 252 250 249 254 256 255 255 262 264 265 268 270 275 277
Height
5872 5871 5869 5867 5866 5865 5864 5863 5859 5858 5857 5858 5857 5858 5858 5859 5860 5861 5861 5862 5862 5863 5863 5863 5864 5865 5865 5866 5867 5869 5870 5871 5873 5874 5876 5877 5880 5881 5882 5883 5883 5883 5883
5874 5873 5871 5870 5868 5867 5866 5866 5863 5860 5859 5860 5860 5860 5861 5861 5862 5863 5863 5863 5864 5865 5865 5865 5866 5867 5867 5868 5870 5871 5871 5874 5876 5876 5879 5880 5882 5883 5884 5884 5884 5884 5885
5876 5875 5873 5872 5871 5870 5868 5868 5866 5863 5862 5862 5862 5862 5863 5863 5863 5864 5864 5865 5865 5866 5867 5867 5868 5869 5869 5870 5871 5872 5874 5876 5878 5880 5882 5883 5884 5885 5886 5886 5887 5887 5888
5877 5877 5875 5874 5873 5872 5871 5869 5869 5867 5865 5864 5864 5864 5865 5866 5866 5866 5866 5867 5867 5868 5869 5870 5870 5871 5872 5873 5874 5875 5877 5879 5881 5883 5884 5885 5887 5888 5888 5889 5889 5889 5889
5880 5879 5877 5876 5875 5874 5873 5872 5871 5870 5869 5868 5867 5867 5867 5868 5870 5869 5869 5870 5871 5871 5871 5872 5872 5873 5874 5875 5877 5878 5880 5882 5884 5885 5887 5887 5888 5888 5889 5890 5891 5890 5891
5881 5881 5879 5878 5877 5876 5875 5875 5873 5873 5873 5871 5870 5870 5870 5871 5872 5872 5873 5874 5874 5875 5875 5876 5876 5878 5879 5880 5881 5883 5885 5886 5887 5888 5889 5889 5890 5890 5891 5891 5891 5892 5892
5883 5882 5881 5880 5879 5879 5877 5877 5876 5874 5875 5875 5874 5873 5873 5873 5875 5875 5876 5877 5878 5879 5879 5880 5881 5882 5883 5884 5886 5887 5888 5889 5890 5891 5891 5891 5892 5892 5892 5892 5892 5892 5892
5885 5884 5883 5882 5881 5880 5880 5879 5878 5877 5876 5876 5876 5876 5876 5876 5876 5877 5879 5880 5881 5881 5882 5883 5884 5885 5886 5887 5888 5889 5890 5891 5891 5891 5892 5892 5892 5892 5892 5891 5891 5891 5892
5886 5885 5885 5884 5882 5881 5881 5881 5880 5880 5879 5877 5878 5878 5878 5878 5879 5879 5880 5882 5883 5884 5884 5885 5885 5886 5887 5888 5889 5890 5891 5891 5891 5892 5892 5892 5892 5892 5891 5891 5891 5891 5891
5888 5886 5885 5885 5885 5883 5882 5882 5881 5881 5881 5880 5879 5879 5879 5880 5881 5882 5882 5883 5884 5885 5885 5886 5887 5888 5889 5890 5890 5890 5891 5891 5892 5892 5892 5891 5892 5892 5892 5892 5891 5891 5891
5889 5887 5885 5885 5885 5885 5884 5883 5882 5882 5882 5882 5881 5880 5880 5881 5881 5882 5883 5884 5885 5886 5887 5887 5887 5888 5889 5890 5890 5891 5891 5892 5892 5892 5892 5892 5892 5892 5892 5892 5891 5891 5891
5891 5889 5888 5885 5885 5885 5885 5884 5883 5883 5883 5883 5882 5882 5881 5881 5882 5883 5883 5885 5886 5886 5887 5887 5888 5888 5889 5890 5890 5891 5891 5892 5892 5892 5892 5892 5892 5892 5892 5891 5891 5890 5890
5891 5890 5889 5887 5886 5885 5884 5884 5884 5884 5884 5883 5883 5883 5882 5882 5882 5882 5883 5884 5885 5886 5886 5887 5887 5888 5889 5889 5890 5890 5891 5891 5891 5892 5892 5892 5892 5892 5891 5891 5890 5889 5889
5888 5888 5887 5886 5886 5885 5885 5884 5882 5883 5883 5883 5884 5884 5883 5882 5882 5882 5882 5883 5884 5885 5886 5886 5887 5887 5888 5888 5889 5889 5890 5890 5891 5891 5891 5891 5891 5890 5890 5889 5889 5888 5888
5884 5885 5886 5885 5884 5884 5883 5883 5882 5881 5881 5882 5882 5883 5883 5883 5883 5882 5882 5882 5882 5883 5884 5885 5885 5886 5887 5887 5888 5888 5889 5889 5889 5889 5889 5889 5889 5889 5889 5888 5888 5888 5887
5881 5882 5883 5883 5884 5882 5881 5881 5881 5881 5880 5880 5880 5880 5881 5881 5881 5882 5882 5881 5881 5881 5882 5882 5883 5884 5885 5885 5886 5886 5887 5887 5887 5887 5887 5887 5887 5887 5887 5887 5886 5886 5886
5874 5876 5877 5878 5880 5880 5879 5879 5878 5879 5879 5877 5877 5878 5878 5878 5879 5879 5879 5879 5879 5879 5879 5879 5880 5880 5881 5882 5882 5883 5883 5883 5884 5884 5884 5885 5885 5885 5885 5885 5884 5884 5884
5869 5870 5872 5873 5874 5875 5876 5876 5875 5875 5875 5876 5876 5874 5874 5874 5875 5876 5876 5876 5876 5876 5876 5876 5876 5876 5876 5877 5878 5879 5880 5880 5880 5880 5881 5881 5882 5882 5882 5882 5882 5881 5881
5864 5864 5866 5867 5867 5868 5869 5870 5871 5871 5872 5872 5872 5872 5872 5871 5871 5871 5872 5872 5873 5873 5873 5873 5872 5872 5873 5873 5873 5874 5875 5875 5876 5877 5878 5878 5879 5879 5879 5879 5879 5878 5878
5855 5856 5858 5858 5859 5860 5862 5864 5866 5867 5866 5865 5866 5867 5868 5869 5868 5867 5867 5868 5868 5868 5869 5869 5869 5868 5868 5868 5868 5869 5870 5870 5871 5872 5873 5874 5875 5875 5875 5875 5875 5875 5874
5846 5847 5848 5849 5850 5853 5854 5855 5857 5859 5860 5859 5860 5860 5861 5862 5862 5862 5862 5861 5862 5863 5863 5863 5864 5864 5864 5863 5864 5864 5865 5865 5866 5867 5867 5868 5869 5869 5870 5870 5870 5870 5870
5834 5835 5838 5839 5840 5840 5841 5843 5846 5849 5851 5852 5853 5854 5854 5854 5854 5854 5855 5856 5856 5856 5857 5857 5857 5857 5858 5857 5858 5857 5859 5860 5861 5860 5860 5861 5863 5863 5864 5864 5865 5865 5865
5820 5822 5824 5826 5828 5830 5832 5833 5835 5838 5840 5844 5847 5847 5847 5846 5845 5845 5846 5847 5848 5849 5849 5849 5849 5849 5850 5850 5850 5851 5851 5853 5850 5853 5855 5855 5856 5857 5858 5858 5859 5859 5859
5806 5807 5809 5811 5813 5815 5818 5820 5821 5825 5828 5832 5835 5835 5835 5836 5837 5835 5835 5836 5837 5838 5840 5841 5839 5840 5840 5842 5841 5844 5844 5844 5845 5846 5847 5849 5849 5850 5851 5851 5852 5852 5851
5794 5792 5793 5795 5797 5799 5800 5803 5806 5810 5813 5816 5818 5820 5822 5824 5826 5827 5827 5827 5827 5827 5830 5830 5830 5831 5830 5832 5834 5835 5837 5838 5839 5840 5841 5841 5841 5842 5842 5843 5843 5842 5841
5779 5779 5777 5777 5778 5779 5782 5784 5786 5790 5795 5798 5800 5804 5806 5808 5811 5814 5814 5816 5818 5818 5818 5819 5819 5819 5821 5822 5824 5825 5827 5828 5829 5829 5831 5834 5831 5833 5831 5834 5834 5833 5831